Powrót do katalogu

THOR ABLESTAR DEB

AktywnyLEO
NORAD 245·DEBRIS·🇺🇸 United States

Wystrzelony Jun 29, 1961 z Cape Canaveral Space Force Station

Loading…

Następne Przeloty (najbliższe 24 godziny)

TLE

ŚwieżeSource: Space-Track

Epoka: Sep 14, 2026, 13:45 UTC

1 00245U 61015CA  26257.57317681  .00000472  00000-0  26887-3 0  9991
2 00245  66.1025 296.5997 0045401 157.5875 202.7210 14.18289565340552

Śledź THOR ABLESTAR DEB w czasie rzeczywistym z AllMySat

Download on the App Store